NE1CU Weather Reports


time (UTC)temp
C
wind
direction
speed
KPH
gust
KPH
rain 1hr
cm
rain 24hr
cm
rain mn
cm
humidity
%
barometer
mb
20260504174225 20 197 3.2 4.8 0.00 0.00 0.00 35 1010.4
20260504173721 20 238 6.4 4.8 0.00 0.00 0.00 34 1010.6
20260504173219 20 193 4.8 9.7 0.00 0.00 0.00 33 1010.8
20260504172715 21 197 6.4 9.7 0.00 0.00 0.00 31 1010.6
20260504172212 21 133 8.0 11.3 0.00 0.00 0.00 32 1010.8
20260504171708 20 209 8.0 9.7 0.00 0.00 0.00 34 1010.7
20260504171205 20 62 4.8 6.4 0.00 0.00 0.00 32 1011.0
20260504170702 20 332 4.8 6.4 0.00 0.00 0.00 35 1010.9
20260504170200 20 180 6.4 6.4 0.00 0.00 0.00 33 1010.7
20260504160118 19 183 3.2 4.8 0.00 0.00 0.00 34 1011.6
20260504151045 18 200 4.8 6.4 0.00 0.00 0.00 37 1012.2
20260504150542 17 178 6.4 9.7 0.00 0.00 0.00 36 1012.3
20260504141008 16 118 1.6 1.6 0.00 0.00 0.00 42 1012.6
20260504140505 17 185 4.8 6.4 0.00 0.00 0.00 42 1012.5
20260504130429 15 159 4.8 6.4 0.00 0.00 0.00 42 1013.0
20260504110317 5 35 0.0 0.0 0.00 0.00 0.00 79 1013.4
20260504100234 2 14 0.0 0.0 0.00 0.00 0.00 86 1013.0
20260504081628 2 3 0.0 0.0 0.00 0.00 0.00 83 1012.5
20260504081123 3 3 0.0 0.0 0.00 0.00 0.00 82 1012.4
20260504080620 3 3 0.0 0.0 0.00 0.00 0.00 83 1012.4
20260504080117 3 3 0.0 0.0 0.00 0.00 0.00 83 1012.5
20260504050433 4 3 0.0 0.0 0.00 0.00 0.00 76 1012.0
20260504045930 4 3 0.0 0.0 0.00 0.00 0.00 76 1011.8
20260504045426 4 3 0.0 0.0 0.00 0.00 0.00 74 1011.9
20260504044922 4 3 0.0 0.0 0.00 0.00 0.00 74 1011.9
20260504044420 4 3 0.0 0.0 0.00 0.00 0.00 73 1011.8
20260504043917 4 3 0.0 0.0 0.00 0.00 0.00 72 1011.8
20260504043414 4 3 0.0 0.0 0.00 0.00 0.00 72 1011.9
20260504042911 5 3 0.0 0.0 0.00 0.00 0.00 71 1011.8
20260504042408 5 3 0.0 0.0 0.00 0.00 0.00 69 1012.0
20260504041904 5 3 0.0 0.0 0.00 0.00 0.00 69 1011.8
20260504041400 5 3 0.0 0.0 0.00 0.00 0.00 69 1011.8
20260504040856 5 3 0.0 0.0 0.00 0.00 0.00 68 1011.8
20260504040354 5 3 0.0 0.0 0.00 0.00 0.00 68 1011.9
20260504035850 5 3 0.0 0.0 0.00 0.00 0.00 66 1012.0
20260504035348 5 3 0.0 0.0 0.00 0.00 0.00 66 1011.9
20260504034844 5 3 0.0 0.0 0.00 0.00 0.00 66 1011.7
20260504034342 5 3 0.0 0.0 0.00 0.00 0.00 66 1011.7
20260504033839 5 3 0.0 0.0 0.00 0.00 0.00 66 1011.9
20260504033337 5 3 0.0 0.0 0.00 0.00 0.00 65 1011.6
20260504032833 6 3 0.0 0.0 0.00 0.00 0.00 65 1011.5
20260504032330 6 3 0.0 0.0 0.00 0.00 0.00 63 1011.6
20260504031827 6 3 0.0 0.0 0.00 0.00 0.00 63 1011.6
20260504031324 6 3 0.0 0.0 0.00 0.00 0.00 63 1011.5
20260504030820 6 3 0.0 0.0 0.00 0.00 0.00 62 1011.5
20260504030318 6 3 0.0 0.0 0.00 0.00 0.00 62 1011.8
20260504025814 6 3 0.0 0.0 0.00 0.00 0.00 62 1011.7
20260504025311 6 3 0.0 0.0 0.00 0.00 0.00 61 1011.7
20260504024808 6 3 0.0 0.0 0.00 0.00 0.00 61 1011.7
20260504024304 7 3 0.0 0.0 0.00 0.00 0.00 59 1011.6
20260504023801 7 3 0.0 0.0 0.00 0.00 0.00 59 1011.7
20260504023257 7 3 0.0 0.0 0.00 0.00 0.00 59 1011.7
20260504022753 7 3 0.0 0.0 0.00 0.00 0.00 58 1011.7
20260504022250 7 3 0.0 0.0 0.00 0.00 0.00 57 1011.7
20260504021747 7 3 0.0 0.0 0.00 0.00 0.00 57 1011.7
20260504021244 7 3 0.0 0.0 0.00 0.00 0.00 57 1011.6
20260504020741 7 3 0.0 0.0 0.00 0.00 0.00 57 1011.5
20260504020237 7 3 0.0 0.0 0.00 0.00 0.00 56 1011.5
20260504015734 7 3 0.0 0.0 0.00 0.00 0.00 56 1011.8
20260504015230 8 3 0.0 0.0 0.00 0.00 0.00 55 1011.5
20260504014726 8 3 0.0 0.0 0.00 0.00 0.00 54 1011.4
20260504014223 8 3 0.0 0.0 0.00 0.00 0.00 52 1011.6
20260504013721 8 3 0.0 0.0 0.00 0.00 0.00 52 1011.5
20260504013218 8 3 0.0 0.0 0.00 0.00 0.00 52 1011.3
20260504012714 8 3 0.0 0.0 0.00 0.00 0.00 51 1011.3
20260504012213 9 3 0.0 0.0 0.00 0.00 0.00 50 1011.3
20260504011709 9 3 0.0 0.0 0.00 0.00 0.00 50 1011.2
20260504011206 9 3 0.0 0.0 0.00 0.00 0.00 49 1011.1
20260504010702 10 3 0.0 0.0 0.00 0.00 0.00 45 1011.2
20260504010157 10 3 0.0 0.0 0.00 0.00 0.00 47 1011.2
20260504005654 10 3 0.0 0.0 0.00 0.00 0.00 46 1010.9
20260504005151 10 3 0.0 0.0 0.00 0.00 0.00 45 1010.9
20260504004649 10 3 0.0 0.0 0.00 0.00 0.00 44 1010.8
20260504004146 11 3 0.0 0.0 0.00 0.00 0.00 43 1010.7
20260504003642 11 3 0.0 0.0 0.00 0.00 0.00 43 1010.7
20260504003139 11 3 0.0 0.0 0.00 0.00 0.00 40 1010.6
20260504002636 11 3 0.0 0.0 0.00 0.00 0.00 40 1010.4
20260504002134 11 3 0.0 0.0 0.00 0.00 0.00 39 1010.5
20260504001631 11 3 0.0 0.0 0.00 0.00 0.00 40 1010.5
20260504001127 11 3 0.0 0.0 0.00 0.00 0.00 38 1010.4
20260504000625 11 3 0.0 0.0 0.00 0.00 0.00 38 1010.3
20260504000122 11 3 0.0 0.0 0.00 0.00 0.00 41 1010.2
20260503235620 11 3 0.0 0.0 0.00 0.00 0.00 37 1010.2
20260503235116 11 3 0.0 0.0 0.00 0.00 0.00 36 1010.1
20260503234614 12 3 0.0 0.0 0.00 0.00 0.00 34 1010.0
20260503234112 12 3 0.0 0.0 0.00 0.00 0.00 33 1009.8
20260503233609 12 3 0.0 0.0 0.00 0.00 0.00 33 1009.8
20260503233104 13 14 0.0 0.0 0.00 0.00 0.00 31 1009.9
20260503232601 13 13 0.0 0.0 0.00 0.00 0.00 29 1009.7
20260503232059 13 8 0.0 0.0 0.00 0.00 0.00 29 1009.5
20260503231556 13 313 3.2 4.8 0.00 0.00 0.00 26 1009.6
20260503231053 13 110 4.8 6.4 0.00 0.00 0.00 26 1009.6
20260503230549 14 0 0.0 0.0 0.00 0.00 0.00 27 1009.4
20260503230047 14 30 3.2 3.2 0.00 0.00 0.00 26 1009.6
20260503225544 14 29 1.6 1.6 0.00 0.00 0.00 27 1009.4
20260503225039 14 327 3.2 3.2 0.00 0.00 0.00 26 1009.4
20260503224537 14 65 1.6 1.6 0.00 0.00 0.00 28 1009.4
20260503224034 14 203 1.6 3.2 0.00 0.00 0.00 28 1009.4
20260503223532 15 102 3.2 3.2 0.00 0.00 0.00 26 1009.4
20260503223027 15 321 1.6 1.6 0.00 0.00 0.00 27 1009.5
20260503222526 15 352 3.2 3.2 0.00 0.00 0.00 27 1009.4
20260503222023 15 213 3.2 3.2 0.00 0.00 0.00 27 1009.3
20260503221522 15 143 3.2 6.4 0.00 0.00 0.00 27 1009.2
20260503221019 15 242 4.8 6.4 0.00 0.00 0.00 27 1009.3
20260503220515 15 15 3.2 4.8 0.00 0.00 0.00 27 1009.3
20260503220012 15 301 1.6 1.6 0.00 0.00 0.00 27 1009.3
20260503215509 15 101 1.6 1.6 0.00 0.00 0.00 29 1009.3
20260503215006 15 266 3.2 3.2 0.00 0.00 0.00 27 1009.3
20260503214504 15 331 6.4 9.7 0.00 0.00 0.00 26 1009.4
20260503214000 15 312 3.2 3.2 0.00 0.00 0.00 28 1009.4
20260503213459 15 21 3.2 4.8 0.00 0.00 0.00 28 1009.3
20260503212955 15 345 4.8 4.8 0.00 0.00 0.00 27 1009.3
20260503212452 15 324 1.6 1.6 0.00 0.00 0.00 27 1009.3
20260503211950 16 11 3.2 4.8 0.00 0.00 0.00 27 1009.2
20260503211447 15 142 3.2 6.4 0.00 0.00 0.00 27 1009.3
20260503210942 15 74 8.0 11.3 0.00 0.00 0.00 27 1009.2
20260503210439 15 22 4.8 6.4 0.00 0.00 0.00 28 1009.2
20260503205933 15 3 4.8 6.4 0.00 0.00 0.00 27 1009.2
20260503205431 15 337 3.2 4.8 0.00 0.00 0.00 28 1009.2
20260503204927 15 303 3.2 4.8 0.00 0.00 0.00 28 1009.2
20260503204425 15 52 1.6 1.6 0.00 0.00 0.00 31 1009.4
20260503203921 15 278 8.0 11.3 0.00 0.00 0.00 28 1009.3
20260503203419 15 339 6.4 9.7 0.00 0.00 0.00 28 1009.1
20260503202915 15 264 8.0 11.3 0.00 0.00 0.00 29 1009.1
20260503202414 15 226 6.4 9.7 0.00 0.00 0.00 28 1009.3
20260503201912 15 339 1.6 1.6 0.00 0.00 0.00 31 1009.2
20260503201408 15 45 8.0 11.3 0.00 0.00 0.00 28 1009.2
20260503200906 15 226 4.8 6.4 0.00 0.00 0.00 28 1009.3
20260503200402 15 20 4.8 9.7 0.00 0.00 0.00 29 1009.4
20260503195859 15 190 4.8 4.8 0.00 0.00 0.00 32 1009.3
20260503195355 15 287 6.4 11.3 0.00 0.00 0.00 28 1009.3
20260503194853 15 267 6.4 6.4 0.00 0.00 0.00 29 1009.2
20260503194349 14 72 3.2 4.8 0.00 0.00 0.00 30 1009.5
20260503193845 15 230 8.0 9.7 0.00 0.00 0.00 30 1009.6
20260503193341 14 322 6.4 9.7 0.00 0.00 0.00 30 1009.6
20260503192837 14 126 9.7 16.1 0.00 0.00 0.00 30 1009.6
20260503192333 13 38 3.2 4.8 0.00 0.00 0.00 32 1009.5
20260503191830 13 12 6.4 11.3 0.00 0.00 0.00 31 1009.6
20260503191327 13 210 6.4 6.4 0.00 0.00 0.00 31 1009.6
20260503190824 14 325 3.2 6.4 0.00 0.00 0.00 30 1009.6
20260503190321 15 249 9.7 12.9 0.00 0.00 0.00 29 1009.5
20260503185818 14 220 4.8 6.4 0.00 0.00 0.00 31 1009.4
20260503185314 13 63 4.8 6.4 0.00 0.00 0.00 34 1009.4
20260503184813 14 263 8.0 12.9 0.00 0.00 0.00 31 1009.7
20260503184310 13 333 6.4 9.7 0.00 0.00 0.00 32 1009.4
20260503183806 13 351 6.4 6.4 0.00 0.00 0.00 30 1009.5
20260503183303 13 238 3.2 3.2 0.00 0.00 0.00 31 1009.5
20260503182800 13 38 3.2 4.8 0.00 0.00 0.00 30 1009.3
20260503182300 13 37 4.8 6.4 0.00 0.00 0.00 32 1009.4
20260503181756 13 258 3.2 4.8 0.00 0.00 0.00 30 1009.4
20260503181253 13 271 9.7 14.5 0.00 0.00 0.00 28 1009.4
20260503180749 13 7 3.2 4.8 0.00 0.00 0.00 32 1009.4
20260503180248 15 212 8.0 11.3 0.00 0.00 0.00 28 1009.2
20260503175743 13 70 3.2 4.8 0.00 0.00 0.00 31 1009.1
20260503175242 13 352 6.4 9.7 0.00 0.00 0.00 30 1009.3
20260503174737 13 327 8.0 12.9 0.00 0.00 0.00 28 1009.3